Time,TemperatureF,DewpointF,PressureIn,WindDirection,WindDirectionDegrees,WindSpeedMPH,WindSpeedGustMPH,Humidity,HourlyPrecipIn,Conditions,Clouds,dailyrainin,SoftwareType,DateUTC
2013-05-22 00:06:00,69.8,67.0,29.88,SE,127,0.0,-999.0,91,-99.99,,,0.00,weatherlink.com 1.10,2013-05-22 04:06:00,
2013-05-22 00:21:00,69.8,67.0,29.88,SE,130,0.0,-999.0,92,-99.99,,,0.00,weatherlink.com 1.10,2013-05-22 04:21:00,
2013-05-22 00:36:00,69.8,67.0,29.88,ESE,113,0.0,-999.0,92,-99.99,,,0.00,weatherlink.com 1.10,2013-05-22 04:36:00,
2013-05-22 00:51:00,69.8,67.0,29.88,ESE,116,0.0,-999.0,92,-99.99,,,0.00,weatherlink.com 1.10,2013-05-22 04:51:00,
2013-05-22 01:06:00,69.8,68.0,29.88,SE,134,1.0,-999.0,93,-99.99,,,0.00,weatherlink.com 1.10,2013-05-22 05:06:00,
2013-05-22 01:21:00,70.1,68.0,29.89,ESE,109,0.0,-999.0,93,-99.99,,,0.00,weatherlink.com 1.10,2013-05-22 05:21:00,
2013-05-22 01:36:00,70.3,68.0,29.88,SSE,147,2.0,-999.0,92,-99.99,,,0.00,weatherlink.com 1.10,2013-05-22 05:36:00,
2013-05-22 01:51:00,70.4,68.0,29.87,SE,137,0.0,-999.0,92,-99.99,,,0.00,weatherlink.com 1.10,2013-05-22 05:51:00,
2013-05-22 02:06:00,70.6,68.0,29.87,SSW,196,1.0,-999.0,92,-99.99,,,0.00,weatherlink.com 1.10,2013-05-22 06:06:00,
2013-05-22 02:21:00,70.8,68.0,29.87,SSE,167,0.0,-999.0,91,-99.99,,,0.00,weatherlink.com 1.10,2013-05-22 06:21:00,
2013-05-22 02:36:00,70.6,68.0,29.87,South,172,0.0,-999.0,91,-99.99,,,0.00,weatherlink.com 1.10,2013-05-22 06:36:00,
2013-05-22 02:51:00,70.6,68.0,29.87,SE,127,0.0,-999.0,91,-99.99,,,0.00,weatherlink.com 1.10,2013-05-22 06:51:00,
2013-05-22 03:06:00,70.6,68.0,29.87,ESE,102,0.0,-999.0,90,-99.99,,,0.00,weatherlink.com 1.10,2013-05-22 07:06:00,
2013-05-22 03:21:00,70.6,68.0,29.87,East,99,0.0,-999.0,90,-99.99,,,0.00,weatherlink.com 1.10,2013-05-22 07:21:00,
2013-05-22 03:36:00,70.6,68.0,29.86,East,99,0.0,-999.0,90,-99.99,,,0.00,weatherlink.com 1.10,2013-05-22 07:36:00,
2013-05-22 03:51:00,70.6,68.0,29.86,East,83,0.0,-999.0,90,-99.99,,,0.00,weatherlink.com 1.10,2013-05-22 07:51:00,
2013-05-22 04:06:00,70.6,68.0,29.86,East,82,0.0,-999.0,90,-99.99,,,0.00,weatherlink.com 1.10,2013-05-22 08:06:00,
2013-05-22 04:21:00,70.4,67.0,29.86,East,99,0.0,-999.0,90,-99.99,,,0.00,weatherlink.com 1.10,2013-05-22 08:21:00,
2013-05-22 04:36:00,70.4,67.0,29.85,SE,130,0.0,-999.0,90,-99.99,,,0.00,weatherlink.com 1.10,2013-05-22 08:36:00,
2013-05-22 04:51:00,70.3,67.0,29.85,East,80,0.0,-999.0,90,-99.99,,,0.00,weatherlink.com 1.10,2013-05-22 08:51:00,
2013-05-22 05:06:00,70.3,67.0,29.85,SE,131,0.0,-999.0,90,-99.99,,,0.00,weatherlink.com 1.10,2013-05-22 09:06:00,
2013-05-22 05:21:00,69.9,67.0,29.84,East,82,0.0,-999.0,90,-99.99,,,0.00,weatherlink.com 1.10,2013-05-22 09:21:00,
2013-05-22 05:36:00,69.8,67.0,29.85,SSE,157,0.0,-999.0,90,-99.99,,,0.00,weatherlink.com 1.10,2013-05-22 09:36:00,
2013-05-22 05:51:00,69.4,67.0,29.85,ESE,106,0.0,-999.0,91,-99.99,,,0.00,weatherlink.com 1.10,2013-05-22 09:51:00,
2013-05-22 06:06:00,69.4,66.0,29.85,South,184,0.0,-999.0,90,-99.99,,,0.00,weatherlink.com 1.10,2013-05-22 10:06:00,
2013-05-22 06:21:00,69.3,66.0,29.86,SE,140,0.0,-999.0,90,-99.99,,,0.00,weatherlink.com 1.10,2013-05-22 10:21:00,
2013-05-22 06:36:00,69.3,66.0,29.87,SE,134,0.0,-999.0,90,-99.99,,,0.00,weatherlink.com 1.10,2013-05-22 10:36:00,
2013-05-22 06:51:00,69.4,66.0,29.87,East,95,0.0,-999.0,90,-99.99,,,0.00,weatherlink.com 1.10,2013-05-22 10:51:00,
2013-05-22 07:06:00,69.6,66.0,29.88,East,100,0.0,-999.0,89,-99.99,,,0.00,weatherlink.com 1.10,2013-05-22 11:06:00,
2013-05-22 07:21:00,69.6,66.0,29.88,SSE,154,2.0,-999.0,89,-99.99,,,0.00,weatherlink.com 1.10,2013-05-22 11:21:00,
2013-05-22 07:36:00,69.8,66.0,29.89,SSE,152,0.0,-999.0,88,-99.99,,,0.00,weatherlink.com 1.10,2013-05-22 11:36:00,
2013-05-22 07:51:00,70.1,67.0,29.89,SSW,193,0.0,-999.0,88,-99.99,,,0.00,weatherlink.com 1.10,2013-05-22 11:51:00,
2013-05-22 08:06:00,70.8,67.0,29.89,SSE,158,0.0,-999.0,86,-99.99,,,0.00,weatherlink.com 1.10,2013-05-22 12:06:00,
2013-05-22 08:21:00,71.1,66.0,29.89,SSW,205,2.0,-999.0,85,-99.99,,,0.00,weatherlink.com 1.10,2013-05-22 12:21:00,
2013-05-22 08:36:00,71.8,67.0,29.90,SSW,193,0.0,-999.0,84,-99.99,,,0.00,weatherlink.com 1.10,2013-05-22 12:36:00,
2013-05-22 08:51:00,72.5,67.0,29.90,South,176,0.0,-999.0,83,-99.99,,,0.00,weatherlink.com 1.10,2013-05-22 12:51:00,
2013-05-22 09:06:00,73.0,67.0,29.90,SE,141,0.0,-999.0,81,-99.99,,,0.00,weatherlink.com 1.10,2013-05-22 13:06:00,
2013-05-22 09:21:00,73.0,67.0,29.90,SSW,198,6.0,-999.0,81,-99.99,,,0.00,weatherlink.com 1.10,2013-05-22 13:21:00,
2013-05-22 09:36:00,72.7,67.0,29.91,SSE,164,0.0,-999.0,81,-99.99,,,0.00,weatherlink.com 1.10,2013-05-22 13:36:00,
2013-05-22 09:52:00,74.6,67.0,29.90,SSW,203,1.0,-999.0,78,-99.99,,,0.00,weatherlink.com 1.10,2013-05-22 13:52:00,
2013-05-22 10:07:00,74.9,67.0,29.90,SSE,157,0.0,-999.0,77,-99.99,,,0.00,weatherlink.com 1.10,2013-05-22 14:07:00,
2013-05-22 10:22:00,75.6,68.0,29.90,South,178,0.0,-999.0,76,-99.99,,,0.00,weatherlink.com 1.10,2013-05-22 14:22:00,
2013-05-22 10:37:00,76.1,67.0,29.90,South,186,0.0,-999.0,74,-99.99,,,0.00,weatherlink.com 1.10,2013-05-22 14:37:00,
2013-05-22 10:52:00,78.1,68.0,29.90,SSE,147,0.0,-999.0,70,-99.99,,,0.00,weatherlink.com 1.10,2013-05-22 14:52:00,
2013-05-22 11:07:00,77.6,67.0,29.91,East,100,0.0,-999.0,70,-99.99,,,0.00,weatherlink.com 1.10,2013-05-22 15:07:00,
2013-05-22 11:22:00,77.4,67.0,29.91,ENE,62,0.0,-999.0,71,-99.99,,,0.00,weatherlink.com 1.10,2013-05-22 15:22:00,
2013-05-22 11:37:00,77.9,69.0,29.91,South,184,0.0,-999.0,73,-99.99,,,0.00,weatherlink.com 1.10,2013-05-22 15:37:00,
2013-05-22 11:52:00,77.6,67.0,29.91,SW,216,2.0,-999.0,70,-99.99,,,0.00,weatherlink.com 1.10,2013-05-22 15:52:00,
2013-05-22 12:07:00,78.1,68.0,29.90,SSE,168,0.0,-999.0,71,-99.99,,,0.00,weatherlink.com 1.10,2013-05-22 16:07:00,
2013-05-22 12:22:00,77.9,68.0,29.90,SSW,212,2.0,-999.0,72,-99.99,,,0.00,weatherlink.com 1.10,2013-05-22 16:22:00,
2013-05-22 12:37:00,77.7,67.0,29.90,South,171,0.0,-999.0,70,-99.99,,,0.00,weatherlink.com 1.10,2013-05-22 16:37:00,
2013-05-22 12:52:00,78.8,68.0,29.89,ENE,76,4.0,-999.0,69,-99.99,,,0.00,weatherlink.com 1.10,2013-05-22 16:52:00,
2013-05-22 13:07:00,79.8,67.0,29.88,ENE,73,2.0,-999.0,66,-99.99,,,0.00,weatherlink.com 1.10,2013-05-22 17:07:00,
2013-05-22 13:22:00,80.5,68.0,29.88,WSW,237,1.0,-999.0,65,-99.99,,,0.00,weatherlink.com 1.10,2013-05-22 17:22:00,
2013-05-22 13:37:00,81.8,67.0,29.87,NNE,16,1.0,-999.0,61,-99.99,,,0.00,weatherlink.com 1.10,2013-05-22 17:37:00,
2013-05-22 13:52:00,83.0,67.0,29.86,SE,127,0.0,-999.0,58,-99.99,,,0.00,weatherlink.com 1.10,2013-05-22 17:52:00,
2013-05-22 14:07:00,83.0,67.0,29.85,North,359,1.0,-999.0,59,-99.99,,,0.00,weatherlink.com 1.10,2013-05-22 18:07:00,
2013-05-22 14:22:00,83.2,68.0,29.85,SE,143,0.0,-999.0,60,-99.99,,,0.00,weatherlink.com 1.10,2013-05-22 18:22:00,
2013-05-22 14:37:00,83.2,68.0,29.85,North,7,0.0,-999.0,61,-99.99,,,0.00,weatherlink.com 1.10,2013-05-22 18:37:00,
2013-05-22 14:52:00,84.0,67.0,29.84,SSE,168,2.0,-999.0,57,-99.99,,,0.00,weatherlink.com 1.10,2013-05-22 18:52:00,
2013-05-22 15:07:00,83.6,67.0,29.83,SE,127,0.0,-999.0,57,-99.99,,,0.00,weatherlink.com 1.10,2013-05-22 19:07:00,
2013-05-22 15:22:00,84.7,66.0,29.83,SSE,162,0.0,-999.0,54,-99.99,,,0.00,weatherlink.com 1.10,2013-05-22 19:22:00,
2013-05-22 15:37:00,84.9,66.0,29.83,NE,37,0.0,-999.0,54,-99.99,,,0.00,weatherlink.com 1.10,2013-05-22 19:37:00,
2013-05-22 15:52:00,84.0,-99.9,29.83,SSE,148,1.0,-999.0,-999,-99.99,,,0.00,weatherlink.com 1.10,2013-05-22 19:52:00,
2013-05-22 16:07:00,84.0,67.0,29.82,East,100,0.0,-999.0,57,-99.99,,,0.00,weatherlink.com 1.10,2013-05-22 20:07:00,
2013-05-22 16:22:00,84.5,69.0,29.82,ENE,72,0.0,-999.0,59,-99.99,,,0.00,weatherlink.com 1.10,2013-05-22 20:22:00,
2013-05-22 16:37:00,83.6,68.0,29.81,NE,41,0.0,-999.0,59,-99.99,,,0.00,weatherlink.com 1.10,2013-05-22 20:37:00,
2013-05-22 16:52:00,84.0,67.0,29.80,ENE,73,0.0,-999.0,57,-99.99,,,0.00,weatherlink.com 1.10,2013-05-22 20:52:00,
2013-05-22 17:07:00,83.4,67.0,29.80,SE,140,0.0,-999.0,59,-99.99,,,0.00,weatherlink.com 1.10,2013-05-22 21:07:00,
2013-05-22 17:22:00,83.0,68.0,29.79,SE,130,0.0,-999.0,61,-99.99,,,0.00,weatherlink.com 1.10,2013-05-22 21:22:00,
2013-05-22 17:37:00,83.6,64.0,29.79,ENE,61,1.0,-999.0,52,-99.99,,,0.00,weatherlink.com 1.10,2013-05-22 21:37:00,
2013-05-22 17:52:00,84.1,64.0,29.79,South,169,0.0,-999.0,51,-99.99,,,0.00,weatherlink.com 1.10,2013-05-22 21:52:00,
2013-05-22 18:07:00,83.4,66.0,29.79,ESE,121,0.0,-999.0,55,-99.99,,,0.00,weatherlink.com 1.10,2013-05-22 22:07:00,
2013-05-22 18:22:00,82.2,65.0,29.79,ENE,69,0.0,-999.0,57,-99.99,,,0.00,weatherlink.com 1.10,2013-05-22 22:22:00,
2013-05-22 18:37:00,78.5,67.0,29.80,East,86,0.0,-999.0,68,-99.99,,,0.00,weatherlink.com 1.10,2013-05-22 22:37:00,
2013-05-22 18:52:00,76.7,67.0,29.81,East,82,0.0,-999.0,72,-99.99,,,0.00,weatherlink.com 1.10,2013-05-22 22:52:00,
2013-05-22 19:07:00,76.1,68.0,29.80,ENE,78,0.0,-999.0,75,-99.99,,,0.00,weatherlink.com 1.10,2013-05-22 23:07:00,
2013-05-22 19:22:00,76.0,68.0,29.80,East,79,0.0,-999.0,76,-99.99,,,0.00,weatherlink.com 1.10,2013-05-22 23:22:00,
2013-05-22 19:37:00,76.0,68.0,29.80,East,79,0.0,-999.0,77,-99.99,,,0.00,weatherlink.com 1.10,2013-05-22 23:37:00,
2013-05-22 19:52:00,75.6,68.0,29.80,East,79,0.0,-999.0,78,-99.99,,,0.00,weatherlink.com 1.10,2013-05-22 23:52:00,
2013-05-22 20:07:00,75.4,69.0,29.81,East,79,0.0,-999.0,79,-99.99,,,0.00,weatherlink.com 1.10,2013-05-23 00:07:00,
2013-05-22 20:22:00,74.9,68.0,29.81,East,79,0.0,-999.0,80,-99.99,,,0.00,weatherlink.com 1.10,2013-05-23 00:22:00,
2013-05-22 20:37:00,74.2,68.0,29.82,East,79,0.0,-999.0,81,-99.99,,,0.00,weatherlink.com 1.10,2013-05-23 00:37:00,
2013-05-22 20:52:00,73.9,67.0,29.83,SSE,147,0.0,-999.0,79,-99.99,,,0.00,weatherlink.com 1.10,2013-05-23 00:52:00,
2013-05-22 21:07:00,73.9,66.0,29.83,East,99,0.0,-999.0,76,-99.99,,,0.00,weatherlink.com 1.10,2013-05-23 01:07:00,
2013-05-22 21:22:00,73.9,66.0,29.83,East,97,0.0,-999.0,75,-99.99,,,0.00,weatherlink.com 1.10,2013-05-23 01:22:00,
2013-05-22 21:37:00,73.5,66.0,29.83,East,97,0.0,-999.0,76,-99.99,,,0.00,weatherlink.com 1.10,2013-05-23 01:37:00,
2013-05-22 21:52:00,73.0,65.0,29.84,East,92,0.0,-999.0,77,-99.99,,,0.00,weatherlink.com 1.10,2013-05-23 01:52:00,
2013-05-22 22:07:00,72.7,66.0,29.84,East,93,0.0,-999.0,78,-99.99,,,0.00,weatherlink.com 1.10,2013-05-23 02:07:00,
2013-05-22 22:22:00,72.3,65.0,29.84,East,89,0.0,-999.0,79,-99.99,,,0.00,weatherlink.com 1.10,2013-05-23 02:22:00,
2013-05-22 22:37:00,72.0,66.0,29.85,East,89,0.0,-999.0,81,-99.99,,,0.00,weatherlink.com 1.10,2013-05-23 02:37:00,
2013-05-22 22:52:00,71.8,66.0,29.85,ENE,61,0.0,-999.0,82,-99.99,,,0.00,weatherlink.com 1.10,2013-05-23 02:52:00,
2013-05-22 23:22:00,71.6,67.0,29.84,ENE,73,0.0,-999.0,84,-99.99,,,0.00,weatherlink.com 1.10,2013-05-23 03:22:00,
2013-05-22 23:37:00,71.5,67.0,29.84,NE,45,0.0,-999.0,84,-99.99,,,0.00,weatherlink.com 1.10,2013-05-23 03:37:00,
2013-05-22 23:52:00,71.5,67.0,29.84,ENE,61,0.0,-999.0,85,-99.99,,,0.00,weatherlink.com 1.10,2013-05-23 03:52:00,